This is the latest recevied weather packets stored in our database for station/object HA9OZD-19. If no packets are shown the sender has not sent any weather packets the latest 10 day(s).
| Time | Temp. | Humidity | Pressure | Rain* | Wind** | Luminosity | Snow |
|---|---|---|---|---|---|---|---|
| 1777900878 | 30° C | 16% | 1034.9 hPa | - | - | - | - |
| 1777897338 | 30° C | 16% | 1035.5 hPa | - | - | - | - |
| 1777893798 | 29.44° C | 18% | 1036.1 hPa | - | - | - | - |
| 1777890258 | 29.44° C | 18% | 1036.9 hPa | - | - | - | - |
| 1777888821 | 28.33° C | 20% | 1037.3 hPa | - | - | - | - |
| 1777885281 | 27.78° C | 24% | 1037.9 hPa | - | - | - | - |
| 1777878200 | 20.56° C | 40% | 1038.3 hPa | - | - | - | - |
| 1777871122 | 9.44° C | 73% | 1038.1 hPa | - | - | - | - |
| 1777867580 | 3.33° C | 69% | 1037.6 hPa | - | - | - | - |
| 1777864040 | 3.33° C | 66% | 1037.4 hPa | - | - | - | - |
| 1777842799 | 9.44° C | 48% | 1037.2 hPa | - | - | - | - |
| 1777839259 | 11.11° C | 44% | 1037.3 hPa | - | - | - | - |
| 1777832179 | 16.11° C | 29% | 1037 hPa | - | - | - | - |
| 1777828639 | 19.44° C | 26% | 1036.8 hPa | - | - | - | - |
| 1777825098 | 22.22° C | 24% | 1036.6 hPa | - | - | - | - |
| 1777818018 | 26.67° C | 19% | 1037.5 hPa | - | - | - | - |
| 1777814478 | 27.22° C | 19% | 1038.1 hPa | - | - | - | - |
| 1777807398 | 27.22° C | 18% | 1039.4 hPa | - | - | - | - |
| 1777798880 | 24.44° C | 21% | 1040.8 hPa | - | - | - | - |
| 1777791800 | 19.44° C | 39% | 1041 hPa | - | - | - | - |
| 1777788260 | 13.33° C | 58% | 1041 hPa | - | - | - | - |
| 1777784720 | 8.89° C | 71% | 1041 hPa | - | - | - | - |
| 1777781179 | 3.89° C | 66% | 1041 hPa | - | - | - | - |
| 1777777639 | 3.89° C | 63% | 1040.5 hPa | - | - | - | - |
| 1777774099 | 4.44° C | 61% | 1040.5 hPa | - | - | - | - |
* Rain since midnight (hover to see other rain measurements)
** Current wind speed in m/s (hover to see current wind gust speed)